Location: Hiram
(41.3130°N, 81.1440°W)
Time: 05:23:30
(UTC-05:00)

Iridium 62 - Visible Passes

Search period start: 24 February 2017 00:00
Search period end: 06 March 2017 00:00
Orbit: 776 x 779 km, 86.4° (Epoch: 23 February)

Date Brightness Start Highest point End Pass type
(mag) Time Alt. Az. Time Alt. Az. Time Alt. Az.
24 Feb 7.2 18:31:24 10° NE 18:34:41 17° ENE 18:37:58 10° ESE visible
24 Feb 6.4 20:10:42 10° N 20:15:48 57° W 20:20:54 10° SSW visible
25 Feb 5.7 19:37:05 10° N 19:42:19 78° E 19:47:32 10° S visible
25 Feb 8.9 21:20:26 10° NW 21:22:16 12° WNW 21:24:06 10° W visible
26 Feb 6.2 19:03:46 10° N 19:08:43 42° E 19:13:39 10° SSE visible
26 Feb 8.2 20:45:11 10° NNW 20:49:07 22° W 20:53:01 10° SW visible
27 Feb 7.2 20:11:00 10° NNW 20:15:49 39° W 20:20:38 10° SSW visible
28 Feb 6.0 19:37:12 10° N 19:42:25 73° W 19:47:36 10° S visible
01 Mar 5.8 19:03:42 10° N 19:08:53 61° E 19:14:02 10° SSE visible
01 Mar 8.7 20:46:04 10° NW 20:49:00 15° WNW 20:51:56 10° WSW visible
02 Mar 8.9 06:22:39 10° ESE 06:25:28 15° ENE 06:28:17 10° NE visible
02 Mar 7.9 20:11:26 10° NNW 20:15:48 27° W 20:20:08 10° SW visible
03 Mar 6.8 19:37:25 10° NNW 19:42:27 50° W 19:47:28 10° SSW visible
04 Mar 5.8 19:03:45 10° N 19:09:00 88° E 19:14:13 10° S visible
04 Mar 9.2 20:48:15 10° WNW 20:48:51 10° WNW 20:49:27 10° W visible
05 Mar 8.7 06:21:31 10° SE 06:25:21 21° E 06:29:12 10° NNE visible
05 Mar 8.6 20:12:05 10° NW 20:15:43 19° W 20:19:21 10° SW visible
